TimeMST,TemperatureF,Dew PointF,Humidity,Sea Level PressureIn,VisibilityMPH,Wind Direction,Wind SpeedMPH,Gust SpeedMPH,PrecipitationIn,Events,Conditions,WindDirDegrees,DateUTC
12:53 AM,28.0,14.0,56,30.11,10.0,Calm,Calm,-,N/A,,Clear,0,2013-03-06 07:53:00
1:53 AM,32.0,14.0,48,30.08,10.0,Calm,Calm,-,N/A,,Clear,0,2013-03-06 08:53:00
2:53 AM,33.1,12.9,43,30.04,10.0,Calm,Calm,-,N/A,,Clear,0,2013-03-06 09:53:00
3:53 AM,32.0,12.9,45,30.02,10.0,Calm,Calm,-,N/A,,Clear,0,2013-03-06 10:53:00
4:53 AM,32.0,14.0,48,30.02,10.0,Calm,Calm,-,N/A,,Clear,0,2013-03-06 11:53:00
5:53 AM,32.0,14.0,48,30.01,10.0,South,3.5,-,N/A,,Clear,170,2013-03-06 12:53:00
6:53 AM,32.0,14.0,48,30.04,10.0,WSW,3.5,-,N/A,,Clear,240,2013-03-06 13:53:00
7:53 AM,37.9,18.0,45,30.04,10.0,Calm,Calm,-,N/A,,Clear,0,2013-03-06 14:53:00
8:53 AM,39.0,19.0,45,30.06,10.0,NW,6.9,-,N/A,,Clear,320,2013-03-06 15:53:00
9:53 AM,43.0,17.1,35,30.02,10.0,NNW,5.8,-,N/A,,Clear,330,2013-03-06 16:53:00
10:53 AM,46.9,18.0,32,29.99,10.0,East,3.5,-,N/A,,Clear,80,2013-03-06 17:53:00
11:53 AM,53.1,17.1,24,29.95,10.0,SSW,3.5,-,N/A,,Clear,210,2013-03-06 18:53:00
12:53 PM,57.9,18.0,21,29.92,10.0,West,10.4,17.3,N/A,,Clear,270,2013-03-06 19:53:00
1:14 PM,60.8,17.6,19,29.92,10.0,West,16.1,23.0,N/A,,Clear,260,2013-03-06 20:14:00
1:53 PM,61.0,17.1,18,29.86,10.0,SW,11.5,21.9,N/A,,Clear,220,2013-03-06 20:53:00
2:53 PM,63.0,14.0,15,29.82,10.0,SSW,20.7,31.1,N/A,,Clear,200,2013-03-06 21:53:00
3:53 PM,63.0,10.9,13,29.81,10.0,SSW,18.4,25.3,N/A,,Clear,210,2013-03-06 22:53:00
4:53 PM,62.1,12.9,15,29.80,10.0,South,18.4,26.5,N/A,,Clear,190,2013-03-06 23:53:00
5:53 PM,57.9,15.1,19,29.81,10.0,SW,16.1,21.9,N/A,,Clear,220,2013-03-07 00:53:00
6:53 PM,55.0,15.1,21,29.82,10.0,SSW,5.8,-,N/A,,Clear,210,2013-03-07 01:53:00
7:53 PM,50.0,16.0,26,29.83,10.0,SW,8.1,-,N/A,,Clear,220,2013-03-07 02:53:00
8:53 PM,48.0,17.1,29,29.83,10.0,SW,6.9,-,N/A,,Clear,230,2013-03-07 03:53:00
9:53 PM,46.9,19.0,33,29.82,10.0,WSW,3.5,-,N/A,,Clear,240,2013-03-07 04:53:00
10:53 PM,48.0,18.0,30,29.80,10.0,Calm,Calm,-,N/A,,Clear,0,2013-03-07 05:53:00
11:53 PM,45.0,18.0,34,29.80,10.0,Calm,Calm,-,N/A,,Clear,0,2013-03-07 06:53:00